Location: Kershaw
(34.5481°N, 80.5823°W)
Time: 13:48:01
(UTC+00:00)

Explorer 7 - Pass Details

Date: 08 October 2022
Orbit: 481 x 665 km, 50.3° (Epoch: 26 November)

Event Time Altitude Azimuth Distance (km) Brightness Sun altitude
Rises 21:31:34 0° 299° (WNW) 2,913 11.2 16.2°
Reaches altitude 10° 21:34:15 10° 286° (WNW) 1,972 10.7 15.7°
Maximum altitude 21:37:55 25° 231° (SW) 1,218 10.2 15.0°
Drops below altitude 10° 21:41:25 10° 176° (S) 1,866 9.8 14.3°
Sets 21:43:54 0° 163° (SSE) 2,722 10.4 13.8°
